Year,Month,Day,Hour,Minute,Value (Times are PST for insolation in W/m^2)
2023,04,30,00,00,0.00
2023,04,30,00,01,0.00
2023,04,30,00,02,0.00
2023,04,30,00,03,0.00
2023,04,30,00,04,0.00
2023,04,30,00,05,0.00
2023,04,30,00,06,0.00
2023,04,30,00,07,0.00
2023,04,30,00,08,0.00
2023,04,30,00,09,0.00
2023,04,30,00,10,0.00
2023,04,30,00,11,0.00
2023,04,30,00,12,0.00
2023,04,30,00,13,0.00
2023,04,30,00,14,0.00
2023,04,30,00,15,0.00
2023,04,30,00,16,0.00
2023,04,30,00,17,0.00
2023,04,30,00,18,0.00
2023,04,30,00,19,0.00
2023,04,30,00,20,0.00
2023,04,30,00,21,0.00
2023,04,30,00,22,0.00
2023,04,30,00,23,0.00
2023,04,30,00,24,0.00
2023,04,30,00,25,0.00
2023,04,30,00,26,0.00
2023,04,30,00,27,0.00
2023,04,30,00,28,0.00
2023,04,30,00,29,0.00
2023,04,30,00,30,0.00
2023,04,30,00,31,0.00
2023,04,30,00,32,0.00
2023,04,30,00,33,0.00
2023,04,30,00,34,0.00
2023,04,30,00,35,0.00
2023,04,30,00,36,0.00
2023,04,30,00,37,0.00
2023,04,30,00,38,0.00
2023,04,30,00,39,0.00
2023,04,30,00,40,0.00
2023,04,30,00,41,0.00
2023,04,30,00,42,0.00
2023,04,30,00,43,0.00
2023,04,30,00,44,0.00
2023,04,30,00,45,0.00
2023,04,30,00,46,0.00
2023,04,30,00,47,0.00
2023,04,30,00,48,0.00
2023,04,30,00,49,0.00
2023,04,30,00,50,0.00
2023,04,30,00,51,0.00
2023,04,30,00,52,0.00
2023,04,30,00,53,0.00
2023,04,30,00,54,0.00
2023,04,30,00,55,0.00
2023,04,30,00,56,0.00
2023,04,30,00,57,0.00
2023,04,30,00,58,0.00
2023,04,30,00,59,0.00
2023,04,30,01,00,0.00
2023,04,30,01,01,0.00
2023,04,30,01,02,0.00
2023,04,30,01,03,0.00
2023,04,30,01,04,0.00
2023,04,30,01,05,0.00
2023,04,30,01,06,0.00
2023,04,30,01,07,0.00
2023,04,30,01,08,0.00
2023,04,30,01,09,0.00
2023,04,30,01,10,0.00
2023,04,30,01,11,0.00
2023,04,30,01,12,0.00
2023,04,30,01,13,0.00
2023,04,30,01,14,0.00
2023,04,30,01,15,0.00
2023,04,30,01,16,0.00
2023,04,30,01,17,0.00
2023,04,30,01,18,0.00
2023,04,30,01,19,0.00
2023,04,30,01,20,0.00
2023,04,30,01,21,0.00
2023,04,30,01,22,0.00
2023,04,30,01,23,0.00
2023,04,30,01,24,0.00
2023,04,30,01,25,0.00
2023,04,30,01,26,0.00
2023,04,30,01,27,0.00
2023,04,30,01,28,0.00
2023,04,30,01,29,0.00
2023,04,30,01,30,0.00
2023,04,30,01,31,0.00
2023,04,30,01,32,0.00
2023,04,30,01,33,0.00
2023,04,30,01,34,0.00
2023,04,30,01,35,0.00
2023,04,30,01,36,0.00
2023,04,30,01,37,0.00
2023,04,30,01,38,0.00
2023,04,30,01,39,0.00
2023,04,30,01,40,0.00
2023,04,30,01,41,0.00
2023,04,30,01,42,0.00
2023,04,30,01,43,0.00
2023,04,30,01,44,0.00
2023,04,30,01,45,0.00
2023,04,30,01,46,0.00
2023,04,30,01,47,0.00
2023,04,30,01,48,0.00
2023,04,30,01,49,0.00
2023,04,30,01,50,0.00
2023,04,30,01,51,0.00
2023,04,30,01,52,0.00
2023,04,30,01,53,0.00
2023,04,30,01,54,0.00
2023,04,30,01,55,0.00
2023,04,30,01,56,0.00
2023,04,30,01,57,0.00
2023,04,30,01,58,0.00
2023,04,30,01,59,0.00
2023,04,30,02,00,0.00
2023,04,30,02,01,0.00
2023,04,30,02,02,0.00
2023,04,30,02,03,0.00
2023,04,30,02,04,0.00
2023,04,30,02,05,0.00
2023,04,30,02,06,0.00
2023,04,30,02,07,0.00
2023,04,30,02,08,0.00
2023,04,30,02,09,0.00
2023,04,30,02,10,0.00
2023,04,30,02,11,0.00
2023,04,30,02,12,0.00
2023,04,30,02,13,0.00
2023,04,30,02,14,0.00
2023,04,30,02,15,0.00
2023,04,30,02,16,0.00
2023,04,30,02,17,0.00
2023,04,30,02,18,0.00
2023,04,30,02,19,0.00
2023,04,30,02,20,0.00
2023,04,30,02,21,0.00
2023,04,30,02,22,0.00
2023,04,30,02,23,0.00
2023,04,30,02,24,0.00
2023,04,30,02,25,0.00
2023,04,30,02,26,0.00
2023,04,30,02,27,0.00
2023,04,30,02,28,0.00
2023,04,30,02,29,0.00
2023,04,30,02,30,0.00
2023,04,30,02,31,0.00
2023,04,30,02,32,0.00
2023,04,30,02,33,0.00
2023,04,30,02,34,0.00
2023,04,30,02,35,0.00
2023,04,30,02,36,0.00
2023,04,30,02,37,0.00
2023,04,30,02,38,0.00
2023,04,30,02,39,0.00
2023,04,30,02,40,0.00
2023,04,30,02,41,0.00
2023,04,30,02,42,0.00
2023,04,30,02,43,0.00
2023,04,30,02,44,0.00
2023,04,30,02,45,0.00
2023,04,30,02,46,0.00
2023,04,30,02,47,0.00
2023,04,30,02,48,0.00
2023,04,30,02,49,0.00
2023,04,30,02,50,0.00
2023,04,30,02,51,0.00
2023,04,30,02,52,0.00
2023,04,30,02,53,0.00
2023,04,30,02,54,0.00
2023,04,30,02,55,0.00
2023,04,30,02,56,0.00
2023,04,30,02,57,0.00
2023,04,30,02,58,0.00
2023,04,30,02,59,0.00
2023,04,30,03,00,0.00
2023,04,30,03,01,0.00
2023,04,30,03,02,0.00
2023,04,30,03,03,0.00
2023,04,30,03,04,0.00
2023,04,30,03,05,0.00
2023,04,30,03,06,0.00
2023,04,30,03,07,0.00
2023,04,30,03,08,0.00
2023,04,30,03,09,0.00
2023,04,30,03,10,0.00
2023,04,30,03,11,0.00
2023,04,30,03,12,0.00
2023,04,30,03,13,0.00
2023,04,30,03,14,0.00
2023,04,30,03,15,0.00
2023,04,30,03,16,0.00
2023,04,30,03,17,0.00
2023,04,30,03,18,0.00
2023,04,30,03,19,0.00
2023,04,30,03,20,0.00
2023,04,30,03,21,0.00
2023,04,30,03,22,0.00
2023,04,30,03,23,0.00
2023,04,30,03,24,0.00
2023,04,30,03,25,0.00
2023,04,30,03,26,0.00
2023,04,30,03,27,0.00
2023,04,30,03,28,0.00
2023,04,30,03,29,0.00
2023,04,30,03,30,0.00
2023,04,30,03,31,0.00
2023,04,30,03,32,0.00
2023,04,30,03,33,0.00
2023,04,30,03,34,0.00
2023,04,30,03,35,0.00
2023,04,30,03,36,0.00
2023,04,30,03,37,0.00
2023,04,30,03,38,0.00
2023,04,30,03,39,0.00
2023,04,30,03,40,0.00
2023,04,30,03,41,0.00
2023,04,30,03,42,0.00
2023,04,30,03,43,0.00
2023,04,30,03,44,0.00
2023,04,30,03,45,0.00
2023,04,30,03,46,0.00
2023,04,30,03,47,0.00
2023,04,30,03,48,0.00
2023,04,30,03,49,0.00
2023,04,30,03,50,0.00
2023,04,30,03,51,0.00
2023,04,30,03,52,0.00
2023,04,30,03,53,0.00
2023,04,30,03,54,0.00
2023,04,30,03,55,0.00
2023,04,30,03,56,0.00
2023,04,30,03,57,0.00
2023,04,30,03,58,0.00
2023,04,30,03,59,0.00
2023,04,30,04,00,0.00
2023,04,30,04,01,0.00
2023,04,30,04,02,0.00
2023,04,30,04,03,0.00
2023,04,30,04,04,0.00
2023,04,30,04,05,0.00
2023,04,30,04,06,0.00
2023,04,30,04,07,0.00
2023,04,30,04,08,0.00
2023,04,30,04,09,0.00
2023,04,30,04,10,0.00
2023,04,30,04,11,0.00
2023,04,30,04,12,0.00
2023,04,30,04,13,0.00
2023,04,30,04,14,0.00
2023,04,30,04,15,0.00
2023,04,30,04,16,0.00
2023,04,30,04,17,0.00
2023,04,30,04,18,0.00
2023,04,30,04,19,0.00
2023,04,30,04,20,0.00
2023,04,30,04,21,0.00
2023,04,30,04,22,0.00
2023,04,30,04,23,0.00
2023,04,30,04,24,0.00
2023,04,30,04,25,0.00
2023,04,30,04,26,0.00
2023,04,30,04,27,0.00
2023,04,30,04,28,0.00
2023,04,30,04,29,0.00
2023,04,30,04,30,0.00
2023,04,30,04,31,0.00
2023,04,30,04,32,0.00
2023,04,30,04,33,0.00
2023,04,30,04,34,0.00
2023,04,30,04,35,0.00
2023,04,30,04,36,0.00
2023,04,30,04,37,0.00
2023,04,30,04,38,0.00
2023,04,30,04,39,0.00
2023,04,30,04,40,0.00
2023,04,30,04,41,0.00
2023,04,30,04,42,0.00
2023,04,30,04,43,0.00
2023,04,30,04,44,0.00
2023,04,30,04,45,0.00
2023,04,30,04,46,0.00
2023,04,30,04,47,0.00
2023,04,30,04,48,0.00
2023,04,30,04,49,0.00
2023,04,30,04,50,0.00
2023,04,30,04,51,0.00
2023,04,30,04,52,0.00
2023,04,30,04,53,0.00
2023,04,30,04,54,0.00
2023,04,30,04,55,0.00
2023,04,30,04,56,0.00
2023,04,30,04,57,0.00
2023,04,30,04,58,0.00
2023,04,30,04,59,0.00
2023,04,30,05,00,0.00
2023,04,30,05,01,0.00
2023,04,30,05,02,0.00
2023,04,30,05,03,0.00
2023,04,30,05,04,0.00
2023,04,30,05,05,0.00
2023,04,30,05,06,0.00
2023,04,30,05,07,0.00
2023,04,30,05,08,0.00
2023,04,30,05,09,0.00
2023,04,30,05,10,0.00
2023,04,30,05,11,0.00
2023,04,30,05,12,0.00
2023,04,30,05,13,0.00
2023,04,30,05,14,0.00
2023,04,30,05,15,0.00
2023,04,30,05,16,0.00
2023,04,30,05,17,0.00
2023,04,30,05,18,0.00
2023,04,30,05,19,0.00
2023,04,30,05,20,0.00
2023,04,30,05,21,0.00
2023,04,30,05,22,0.00
2023,04,30,05,23,0.00
2023,04,30,05,24,0.00
2023,04,30,05,25,0.00
2023,04,30,05,26,0.00
2023,04,30,05,27,0.00
2023,04,30,05,28,0.00
2023,04,30,05,29,0.00
2023,04,30,05,30,0.00
2023,04,30,05,31,0.00
2023,04,30,05,32,0.00
2023,04,30,05,33,0.00
2023,04,30,05,34,0.00
2023,04,30,05,35,0.00
2023,04,30,05,36,0.00
2023,04,30,05,37,0.00
2023,04,30,05,38,0.00
2023,04,30,05,39,0.00
2023,04,30,05,40,0.00
2023,04,30,05,41,0.00
2023,04,30,05,42,0.00
2023,04,30,05,43,0.00
2023,04,30,05,44,0.00
2023,04,30,05,45,0.00
2023,04,30,05,46,0.00
2023,04,30,05,47,0.00
2023,04,30,05,48,0.00
2023,04,30,05,49,0.00
2023,04,30,05,50,0.00
2023,04,30,05,51,0.00
2023,04,30,05,52,0.00
2023,04,30,05,53,0.00
2023,04,30,05,54,2.40
2023,04,30,05,55,5.00
2023,04,30,05,56,5.00
2023,04,30,05,57,5.10
2023,04,30,05,58,7.00
2023,04,30,05,59,7.00
2023,04,30,06,00,7.00
2023,04,30,06,01,7.00
2023,04,30,06,02,7.00
2023,04,30,06,03,7.00
2023,04,30,06,04,7.50
2023,04,30,06,05,9.00
2023,04,30,06,06,9.00
2023,04,30,06,07,10.20
2023,04,30,06,08,11.00
2023,04,30,06,09,11.90
2023,04,30,06,10,12.50
2023,04,30,06,11,14.80
2023,04,30,06,12,16.00
2023,04,30,06,13,17.40
2023,04,30,06,14,18.90
2023,04,30,06,15,21.10
2023,04,30,06,16,23.00
2023,04,30,06,17,23.80
2023,04,30,06,18,25.00
2023,04,30,06,19,25.00
2023,04,30,06,20,25.90
2023,04,30,06,21,26.00
2023,04,30,06,22,25.70
2023,04,30,06,23,25.00
2023,04,30,06,24,25.00
2023,04,30,06,25,25.00
2023,04,30,06,26,23.30
2023,04,30,06,27,23.00
2023,04,30,06,28,23.00
2023,04,30,06,29,22.10
2023,04,30,06,30,21.00
2023,04,30,06,31,21.00
2023,04,30,06,32,21.00
2023,04,30,06,33,21.00
2023,04,30,06,34,21.00
2023,04,30,06,35,21.00
2023,04,30,06,36,22.20
2023,04,30,06,37,23.00
2023,04,30,06,38,25.00
2023,04,30,06,39,26.00
2023,04,30,06,40,26.70
2023,04,30,06,41,28.00
2023,04,30,06,42,28.00
2023,04,30,06,43,28.00
2023,04,30,06,44,29.80
2023,04,30,06,45,30.00
2023,04,30,06,46,30.00
2023,04,30,06,47,30.00
2023,04,30,06,48,30.00
2023,04,30,06,49,31.60
2023,04,30,06,50,32.00
2023,04,30,06,51,31.50
2023,04,30,06,52,30.00
2023,04,30,06,53,30.00
2023,04,30,06,54,30.00
2023,04,30,06,55,30.00
2023,04,30,06,56,32.00
2023,04,30,06,57,33.50
2023,04,30,06,58,35.70
2023,04,30,06,59,36.00
2023,04,30,07,00,33.50
2023,04,30,07,01,33.00
2023,04,30,07,02,33.00
2023,04,30,07,03,33.00
2023,04,30,07,04,33.90
2023,04,30,07,05,36.10
2023,04,30,07,06,38.50
2023,04,30,07,07,39.00
2023,04,30,07,08,39.00
2023,04,30,07,09,39.00
2023,04,30,07,10,39.40
2023,04,30,07,11,40.00
2023,04,30,07,12,41.50
2023,04,30,07,13,42.10
2023,04,30,07,14,44.50
2023,04,30,07,15,51.80
2023,04,30,07,16,57.00
2023,04,30,07,17,51.00
2023,04,30,07,18,60.10
2023,04,30,07,19,67.40
2023,04,30,07,20,160.30
2023,04,30,07,21,182.00
2023,04,30,07,22,197.60
2023,04,30,07,23,202.60
2023,04,30,07,24,205.60
2023,04,30,07,25,203.30
2023,04,30,07,26,162.40
2023,04,30,07,27,149.50
2023,04,30,07,28,204.00
2023,04,30,07,29,121.00
2023,04,30,07,30,70.00
2023,04,30,07,31,90.50
2023,04,30,07,32,158.60
2023,04,30,07,33,98.60
2023,04,30,07,34,105.50
2023,04,30,07,35,141.40
2023,04,30,07,36,211.00
2023,04,30,07,37,218.50
2023,04,30,07,38,155.10
2023,04,30,07,39,188.90
2023,04,30,07,40,236.00
2023,04,30,07,41,236.00
2023,04,30,07,42,152.20
2023,04,30,07,43,155.20
2023,04,30,07,44,88.50
2023,04,30,07,45,71.00
2023,04,30,07,46,97.90
2023,04,30,07,47,84.20
2023,04,30,07,48,73.00
2023,04,30,07,49,65.30
2023,04,30,07,50,65.30
2023,04,30,07,51,63.30
2023,04,30,07,52,65.00
2023,04,30,07,53,63.50
2023,04,30,07,54,98.70
2023,04,30,07,55,65.80
2023,04,30,07,56,69.00
2023,04,30,07,57,70.40
2023,04,30,07,58,69.00
2023,04,30,07,59,67.00
2023,04,30,08,00,72.50
2023,04,30,08,01,183.00
2023,04,30,08,02,219.90
2023,04,30,08,03,306.00
2023,04,30,08,04,314.90
2023,04,30,08,05,321.40
2023,04,30,08,06,325.10
2023,04,30,08,07,329.60
2023,04,30,08,08,334.20
2023,04,30,08,09,341.70
2023,04,30,08,10,345.70
2023,04,30,08,11,346.00
2023,04,30,08,12,325.90
2023,04,30,08,13,118.60
2023,04,30,08,14,72.00
2023,04,30,08,15,72.00
2023,04,30,08,16,72.00
2023,04,30,08,17,72.00
2023,04,30,08,18,72.00
2023,04,30,08,19,72.00
2023,04,30,08,20,71.20
2023,04,30,08,21,70.00
2023,04,30,08,22,72.70
2023,04,30,08,23,69.90
2023,04,30,08,24,70.20
2023,04,30,08,25,77.00
2023,04,30,08,26,82.30
2023,04,30,08,27,90.00
2023,04,30,08,28,308.20
2023,04,30,08,29,390.00
2023,04,30,08,30,394.30
2023,04,30,08,31,397.40
2023,04,30,08,32,402.40
2023,04,30,08,33,407.70
2023,04,30,08,34,408.50
2023,04,30,08,35,409.70
2023,04,30,08,36,409.30
2023,04,30,08,37,417.10
2023,04,30,08,38,425.30
2023,04,30,08,39,429.00
2023,04,30,08,40,411.20
2023,04,30,08,41,433.50
2023,04,30,08,42,443.00
2023,04,30,08,43,444.70
2023,04,30,08,44,433.70
2023,04,30,08,45,444.10
2023,04,30,08,46,460.50
2023,04,30,08,47,463.70
2023,04,30,08,48,464.80
2023,04,30,08,49,466.40
2023,04,30,08,50,462.40
2023,04,30,08,51,472.80
2023,04,30,08,52,480.00
2023,04,30,08,53,481.80
2023,04,30,08,54,502.20
2023,04,30,08,55,515.50
2023,04,30,08,56,520.70
2023,04,30,08,57,522.00
2023,04,30,08,58,522.00
2023,04,30,08,59,576.80
2023,04,30,09,00,609.50
2023,04,30,09,01,619.00
2023,04,30,09,02,481.00
2023,04,30,09,03,401.50
2023,04,30,09,04,418.00
2023,04,30,09,05,271.00
2023,04,30,09,06,302.10
2023,04,30,09,07,380.00
2023,04,30,09,08,300.30
2023,04,30,09,09,239.00
2023,04,30,09,10,237.30
2023,04,30,09,11,239.70
2023,04,30,09,12,242.50
2023,04,30,09,13,243.80
2023,04,30,09,14,300.30
2023,04,30,09,15,314.60
2023,04,30,09,16,334.50
2023,04,30,09,17,302.00
2023,04,30,09,18,281.00
2023,04,30,09,19,295.70
2023,04,30,09,20,343.10
2023,04,30,09,21,358.80
2023,04,30,09,22,272.80
2023,04,30,09,23,274.10
2023,04,30,09,24,319.90
2023,04,30,09,25,295.00
2023,04,30,09,26,263.70
2023,04,30,09,27,272.80
2023,04,30,09,28,294.30
2023,04,30,09,29,333.20
2023,04,30,09,30,406.00
2023,04,30,09,31,598.50
2023,04,30,09,32,761.10
2023,04,30,09,33,684.30
2023,04,30,09,34,601.20
2023,04,30,09,35,633.30
2023,04,30,09,36,548.10
2023,04,30,09,37,567.50
2023,04,30,09,38,613.00
2023,04,30,09,39,375.70
2023,04,30,09,40,328.10
2023,04,30,09,41,371.20
2023,04,30,09,42,422.70
2023,04,30,09,43,457.00
2023,04,30,09,44,457.00
2023,04,30,09,45,457.00
2023,04,30,09,46,459.90
2023,04,30,09,47,465.40
2023,04,30,09,48,431.00
2023,04,30,09,49,427.00
2023,04,30,09,50,457.50
2023,04,30,09,51,469.00
2023,04,30,09,52,458.90
2023,04,30,09,53,428.10
2023,04,30,09,54,490.60
2023,04,30,09,55,492.40
2023,04,30,09,56,406.90
2023,04,30,09,57,351.40
2023,04,30,09,58,329.50
2023,04,30,09,59,322.10
2023,04,30,10,00,296.20
2023,04,30,10,01,262.40
2023,04,30,10,02,247.80
2023,04,30,10,03,250.40
2023,04,30,10,04,247.00
2023,04,30,10,05,244.00
2023,04,30,10,06,252.70
2023,04,30,10,07,267.00
2023,04,30,10,08,276.50
2023,04,30,10,09,292.10
2023,04,30,10,10,308.70
2023,04,30,10,11,309.90
2023,04,30,10,12,329.90
2023,04,30,10,13,338.30
2023,04,30,10,14,330.40
2023,04,30,10,15,325.00
2023,04,30,10,16,335.30
2023,04,30,10,17,310.40
2023,04,30,10,18,295.00
2023,04,30,10,19,300.40
2023,04,30,10,20,328.90
2023,04,30,10,21,370.70
2023,04,30,10,22,386.70
2023,04,30,10,23,410.00
2023,04,30,10,24,438.30
2023,04,30,10,25,516.00
2023,04,30,10,26,568.70
2023,04,30,10,27,655.80
2023,04,30,10,28,701.00
2023,04,30,10,29,595.60
2023,04,30,10,30,463.80
2023,04,30,10,31,446.90
2023,04,30,10,32,412.00
2023,04,30,10,33,374.90
2023,04,30,10,34,349.40
2023,04,30,10,35,344.40
2023,04,30,10,36,351.30
2023,04,30,10,37,373.50
2023,04,30,10,38,406.70
2023,04,30,10,39,419.60
2023,04,30,10,40,427.10
2023,04,30,10,41,493.80
2023,04,30,10,42,528.30
2023,04,30,10,43,464.60
2023,04,30,10,44,439.10
2023,04,30,10,45,438.00
2023,04,30,10,46,438.00
2023,04,30,10,47,438.00
2023,04,30,10,48,424.90
2023,04,30,10,49,406.80
2023,04,30,10,50,401.00
2023,04,30,10,51,397.50
2023,04,30,10,52,424.30
2023,04,30,10,53,430.30
2023,04,30,10,54,404.30
2023,04,30,10,55,386.00
2023,04,30,10,56,380.60
2023,04,30,10,57,386.50
2023,04,30,10,58,392.00
2023,04,30,10,59,401.40
2023,04,30,11,00,412.00
2023,04,30,11,01,395.80
2023,04,30,11,02,366.90
2023,04,30,11,03,351.60
2023,04,30,11,04,350.00
2023,04,30,11,05,364.30
2023,04,30,11,06,380.10
2023,04,30,11,07,374.70
2023,04,30,11,08,353.00
2023,04,30,11,09,358.50
2023,04,30,11,10,365.80
2023,04,30,11,11,335.70
2023,04,30,11,12,322.90
2023,04,30,11,13,345.60
2023,04,30,11,14,370.50
2023,04,30,11,15,397.50
2023,04,30,11,16,428.60
2023,04,30,11,17,460.90
2023,04,30,11,18,494.80
2023,04,30,11,19,474.90
2023,04,30,11,20,424.60
2023,04,30,11,21,415.30
2023,04,30,11,22,430.00
2023,04,30,11,23,454.40
2023,04,30,11,24,483.90
2023,04,30,11,25,489.50
2023,04,30,11,26,499.80
2023,04,30,11,27,494.30
2023,04,30,11,28,465.40
2023,04,30,11,29,452.70
2023,04,30,11,30,448.90
2023,04,30,11,31,459.90
2023,04,30,11,32,479.30
2023,04,30,11,33,465.50
2023,04,30,11,34,429.60
2023,04,30,11,35,405.90
2023,04,30,11,36,406.70
2023,04,30,11,37,416.00
2023,04,30,11,38,414.00
2023,04,30,11,39,435.30
2023,04,30,11,40,493.60
2023,04,30,11,41,519.30
2023,04,30,11,42,513.30
2023,04,30,11,43,544.30
2023,04,30,11,44,587.70
2023,04,30,11,45,571.70
2023,04,30,11,46,489.50
2023,04,30,11,47,451.40
2023,04,30,11,48,462.20
2023,04,30,11,49,449.20
2023,04,30,11,50,476.00
2023,04,30,11,51,620.30
2023,04,30,11,52,779.00
2023,04,30,11,53,779.00
2023,04,30,11,54,666.80
2023,04,30,11,55,650.00
2023,04,30,11,56,654.10
2023,04,30,11,57,684.50
2023,04,30,11,58,708.00
2023,04,30,11,59,708.00
2023,04,30,12,00,829.80
2023,04,30,12,01,812.60
2023,04,30,12,02,630.90
2023,04,30,12,03,573.00
2023,04,30,12,04,547.00
2023,04,30,12,05,561.80
2023,04,30,12,06,602.10
2023,04,30,12,07,589.00
2023,04,30,12,08,586.00
2023,04,30,12,09,599.30
2023,04,30,12,10,628.00
2023,04,30,12,11,613.70
2023,04,30,12,12,636.60
2023,04,30,12,13,656.00
2023,04,30,12,14,619.70
2023,04,30,12,15,661.00
2023,04,30,12,16,661.00
2023,04,30,12,17,902.80
2023,04,30,12,18,983.40
2023,04,30,12,19,984.00
2023,04,30,12,20,984.00
2023,04,30,12,21,980.30
2023,04,30,12,22,977.00
2023,04,30,12,23,687.20
2023,04,30,12,24,633.80
2023,04,30,12,25,717.00
2023,04,30,12,26,816.40
2023,04,30,12,27,960.00
2023,04,30,12,28,1033.00
2023,04,30,12,29,1065.00
2023,04,30,12,30,1065.00
2023,04,30,12,31,1053.90
2023,04,30,12,32,1027.00
2023,04,30,12,33,1027.00
2023,04,30,12,34,642.20
2023,04,30,12,35,529.00
2023,04,30,12,36,542.60
2023,04,30,12,37,629.00
2023,04,30,12,38,629.00
2023,04,30,12,39,666.30
2023,04,30,12,40,693.00
2023,04,30,12,41,485.20
2023,04,30,12,42,526.00
2023,04,30,12,43,526.00
2023,04,30,12,44,552.60
2023,04,30,12,45,557.90
2023,04,30,12,46,519.80
2023,04,30,12,47,495.10
2023,04,30,12,48,480.30
2023,04,30,12,49,513.20
2023,04,30,12,50,607.50
2023,04,30,12,51,624.80
2023,04,30,12,52,690.20
2023,04,30,12,53,630.60
2023,04,30,12,54,591.80
2023,04,30,12,55,617.70
2023,04,30,12,56,674.00
2023,04,30,12,57,722.20
2023,04,30,12,58,650.70
2023,04,30,12,59,617.50
2023,04,30,13,00,617.00
2023,04,30,13,01,597.80
2023,04,30,13,02,570.00
2023,04,30,13,03,570.00
2023,04,30,13,04,555.10
2023,04,30,13,05,552.00
2023,04,30,13,06,558.30
2023,04,30,13,07,575.00
2023,04,30,13,08,976.80
2023,04,30,13,09,1244.10
2023,04,30,13,10,1239.00
2023,04,30,13,11,1129.20
2023,04,30,13,12,440.80
2023,04,30,13,13,495.30
2023,04,30,13,14,556.00
2023,04,30,13,15,566.10
2023,04,30,13,16,564.00
2023,04,30,13,17,981.00
2023,04,30,13,18,928.80
2023,04,30,13,19,802.00
2023,04,30,13,20,802.00
2023,04,30,13,21,802.00
2023,04,30,13,22,802.00
2023,04,30,13,23,773.80
2023,04,30,13,24,636.90
2023,04,30,13,25,626.70
2023,04,30,13,26,603.50
2023,04,30,13,27,549.00
2023,04,30,13,28,531.10
2023,04,30,13,29,534.90
2023,04,30,13,30,585.80
2023,04,30,13,31,606.50
2023,04,30,13,32,566.10
2023,04,30,13,33,550.80
2023,04,30,13,34,627.10
2023,04,30,13,35,659.00
2023,04,30,13,36,659.00
2023,04,30,13,37,659.00
2023,04,30,13,38,586.30
2023,04,30,13,39,576.90
2023,04,30,13,40,561.50
2023,04,30,13,41,550.20
2023,04,30,13,42,527.40
2023,04,30,13,43,517.00
2023,04,30,13,44,516.40
2023,04,30,13,45,494.50
2023,04,30,13,46,492.70
2023,04,30,13,47,488.00
2023,04,30,13,48,496.40
2023,04,30,13,49,519.40
2023,04,30,13,50,538.00
2023,04,30,13,51,538.00
2023,04,30,13,52,434.50
2023,04,30,13,53,400.80
2023,04,30,13,54,386.70
2023,04,30,13,55,391.20
2023,04,30,13,56,396.00
2023,04,30,13,57,388.30
2023,04,30,13,58,349.60
2023,04,30,13,59,341.00
2023,04,30,14,00,343.70
2023,04,30,14,01,334.20
2023,04,30,14,02,323.90
2023,04,30,14,03,318.20
2023,04,30,14,04,314.70
2023,04,30,14,05,314.60
2023,04,30,14,06,318.00
2023,04,30,14,07,325.60
2023,04,30,14,08,330.00
2023,04,30,14,09,325.70
2023,04,30,14,10,332.10
2023,04,30,14,11,344.70
2023,04,30,14,12,355.50
2023,04,30,14,13,356.50
2023,04,30,14,14,351.20
2023,04,30,14,15,350.20
2023,04,30,14,16,352.00
2023,04,30,14,17,353.90
2023,04,30,14,18,359.60
2023,04,30,14,19,365.30
2023,04,30,14,20,374.40
2023,04,30,14,21,391.20
2023,04,30,14,22,411.80
2023,04,30,14,23,424.90
2023,04,30,14,24,434.00
2023,04,30,14,25,443.50
2023,04,30,14,26,452.90
2023,04,30,14,27,433.30
2023,04,30,14,28,422.50
2023,04,30,14,29,421.50
2023,04,30,14,30,409.70
2023,04,30,14,31,390.70
2023,04,30,14,32,369.50
2023,04,30,14,33,356.50
2023,04,30,14,34,372.10
2023,04,30,14,35,406.10
2023,04,30,14,36,429.00
2023,04,30,14,37,429.00
2023,04,30,14,38,707.10
2023,04,30,14,39,741.50
2023,04,30,14,40,698.10
2023,04,30,14,41,673.40
2023,04,30,14,42,619.00
2023,04,30,14,43,613.60
2023,04,30,14,44,594.70
2023,04,30,14,45,585.50
2023,04,30,14,46,573.30
2023,04,30,14,47,531.40
2023,04,30,14,48,517.70
2023,04,30,14,49,507.50
2023,04,30,14,50,479.90
2023,04,30,14,51,450.00
2023,04,30,14,52,460.00
2023,04,30,14,53,495.70
2023,04,30,14,54,499.00
2023,04,30,14,55,603.40
2023,04,30,14,56,538.50
2023,04,30,14,57,524.80
2023,04,30,14,58,565.40
2023,04,30,14,59,618.00
2023,04,30,15,00,628.00
2023,04,30,15,01,774.50
2023,04,30,15,02,807.00
2023,04,30,15,03,742.00
2023,04,30,15,04,559.70
2023,04,30,15,05,578.00
2023,04,30,15,06,578.00
2023,04,30,15,07,483.10
2023,04,30,15,08,457.20
2023,04,30,15,09,457.00
2023,04,30,15,10,457.00
2023,04,30,15,11,448.30
2023,04,30,15,12,441.00
2023,04,30,15,13,274.10
2023,04,30,15,14,228.30
2023,04,30,15,15,253.50
2023,04,30,15,16,271.20
2023,04,30,15,17,283.50
2023,04,30,15,18,301.30
2023,04,30,15,19,334.50
2023,04,30,15,20,372.30
2023,04,30,15,21,444.80
2023,04,30,15,22,484.50
2023,04,30,15,23,439.60
2023,04,30,15,24,389.30
2023,04,30,15,25,393.30
2023,04,30,15,26,370.40
2023,04,30,15,27,315.50
2023,04,30,15,28,288.10
2023,04,30,15,29,275.30
2023,04,30,15,30,266.60
2023,04,30,15,31,272.10
2023,04,30,15,32,289.90
2023,04,30,15,33,296.00
2023,04,30,15,34,295.40
2023,04,30,15,35,302.50
2023,04,30,15,36,315.30
2023,04,30,15,37,326.80
2023,04,30,15,38,336.00
2023,04,30,15,39,348.80
2023,04,30,15,40,355.00
2023,04,30,15,41,350.20
2023,04,30,15,42,351.10
2023,04,30,15,43,361.00
2023,04,30,15,44,383.30
2023,04,30,15,45,408.00
2023,04,30,15,46,408.00
2023,04,30,15,47,408.00
2023,04,30,15,48,688.00
2023,04,30,15,49,806.10
2023,04,30,15,50,864.50
2023,04,30,15,51,873.50
2023,04,30,15,52,896.00
2023,04,30,15,53,896.00
2023,04,30,15,54,896.00
2023,04,30,15,55,896.00
2023,04,30,15,56,867.70
2023,04,30,15,57,772.60
2023,04,30,15,58,733.00
2023,04,30,15,59,733.00
2023,04,30,16,00,789.10
2023,04,30,16,01,861.00
2023,04,30,16,02,861.00
2023,04,30,16,03,840.50
2023,04,30,16,04,816.00
2023,04,30,16,05,782.50
2023,04,30,16,06,800.60
2023,04,30,16,07,823.40
2023,04,30,16,08,878.70
2023,04,30,16,09,804.90
2023,04,30,16,10,763.80
2023,04,30,16,11,721.50
2023,04,30,16,12,702.80
2023,04,30,16,13,446.00
2023,04,30,16,14,446.00
2023,04,30,16,15,542.00
2023,04,30,16,16,599.90
2023,04,30,16,17,594.00
2023,04,30,16,18,554.10
2023,04,30,16,19,550.00
2023,04,30,16,20,442.90
2023,04,30,16,21,237.30
2023,04,30,16,22,240.90
2023,04,30,16,23,270.30
2023,04,30,16,24,292.10
2023,04,30,16,25,272.30
2023,04,30,16,26,295.20
2023,04,30,16,27,316.70
2023,04,30,16,28,294.60
2023,04,30,16,29,302.70
2023,04,30,16,30,296.00
2023,04,30,16,31,226.20
2023,04,30,16,32,188.30
2023,04,30,16,33,180.70
2023,04,30,16,34,178.30
2023,04,30,16,35,168.90
2023,04,30,16,36,156.00
2023,04,30,16,37,158.10
2023,04,30,16,38,173.70
2023,04,30,16,39,196.90
2023,04,30,16,40,216.90
2023,04,30,16,41,244.30
2023,04,30,16,42,283.20
2023,04,30,16,43,311.20
2023,04,30,16,44,309.40
2023,04,30,16,45,283.20
2023,04,30,16,46,250.60
2023,04,30,16,47,228.40
2023,04,30,16,48,211.00
2023,04,30,16,49,212.70
2023,04,30,16,50,222.70
2023,04,30,16,51,238.40
2023,04,30,16,52,251.90
2023,04,30,16,53,255.10
2023,04,30,16,54,258.90
2023,04,30,16,55,263.10
2023,04,30,16,56,270.50
2023,04,30,16,57,288.00
2023,04,30,16,58,297.90
2023,04,30,16,59,280.00
2023,04,30,17,00,282.30
2023,04,30,17,01,298.20
2023,04,30,17,02,323.20
2023,04,30,17,03,334.40
2023,04,30,17,04,329.50
2023,04,30,17,05,361.30
2023,04,30,17,06,329.10
2023,04,30,17,07,351.10
2023,04,30,17,08,354.50
2023,04,30,17,09,374.40
2023,04,30,17,10,326.30